This demonstration page uses our WeatherBlox Daily Observations layout. Learn more.

Left ArrowRight Arrow

Hourly Observations for July 11, 2015

Temp ( °F °C ) Dew Point ( °F °C ) Humidity (%) Winds ( mph kmh ) Pressure ( in mb ) Visibility ( mi km ) Precip ( " mm )
12:53 am 00:53 Mostly Clear 73 22.8 58 14.4 59 59 Calm 29.85 1011 10 16 0.00 0.00
1:53 am 01:53 Clear 70 21.1 58 14.4 66 66 Calm 29.85 1011 10 16 0.00 0.00
2:53 am 02:53 Clear 70 21.1 57 13.9 64 64 SE 3 6 29.86 1011 10 16 0.00 0.00
3:53 am 03:53 Clear 68 20 57 13.9 68 68 Calm 29.86 1011 10 16 0.00 0.00
4:53 am 04:53 Clear 69 20.6 58 14.4 68 68 SW 3 6 29.86 1011 10 16 0.00 0.00
5:53 am 05:53 Partly Cloudy 67 19.4 58 14.4 73 73 SW 3 6 29.88 1012 10 16 0.00 0.00
6:53 am 06:53 Cloudy 69 20.6 58 14.4 68 68 Calm 29.89 1012 10 16 0.00 0.00
7:53 am 07:53 Cloudy 69 20.6 59 15 70 70 SW 5 7 29.91 1013 10 16 0.00 0.00
8:53 am 08:53 Cloudy 70 21.1 57 13.9 64 64 S 6 9 29.92 1013 10 16 0.00 0.00
9:53 am 09:53 Partly Cloudy 73 22.8 58 14.4 59 59 Calm 29.93 1013 10 16 0.00 0.00
10:53 am 10:53 Partly Cloudy 76 24.4 56 13.3 50 50 SSW 3 6 29.92 1013 10 16 0.00 0.00
11:53 am 11:53 Sunny 80 26.7 56 13.3 44 44 SSE 6 9 29.92 1013 10 16 0.00 0.00
12:53 pm 12:53 Sunny 83 28.3 56 13.3 40 40 SE 10 17 29.90 1013 10 16 0.00 0.00
1:53 pm 13:53 Sunny 84 28.9 55 12.8 37 37 VRB 3 6 29.88 1012 10 16 0.00 0.00
2:53 pm 14:53 Mostly Cloudy 88 31.1 54 12.2 31 31 SW 9 15 29.87 1012 10 16 0.00 0.00
3:53 pm 15:53 Partly Cloudy 89 31.7 54 12.2 30 30 undefined N/A 29.85 1011 10 16 0.00 0.00
4:53 pm 16:53 Sunny 89 31.7 53 11.7 29 29 S 7 11 29.84 1010 10 16 0.00 0.00
5:53 pm 17:53 Sunny 89 31.7 53 11.7 29 29 SW 8 13 29.83 1010 10 16 0.00 0.00
6:53 pm 18:53 Sunny 88 31.1 54 12.2 31 31 SSE 14 22 29.82 1010 10 16 0.00 0.00
7:53 pm 19:53 Sunny 85 29.4 56 13.3 37 37 SSE 10 17 29.83 1010 10 16 0.00 0.00
8:53 pm 20:53 Clear 83 28.3 58 14.4 43 43 SSE 10 17 29.85 1011 10 16 0.00 0.00
9:53 pm 21:53 Mostly Clear 82 27.8 60 15.6 47 47 SSE 9 15 29.86 1011 10 16 0.00 0.00
10:53 pm 22:53 Mostly Cloudy 82 27.8 57 13.9 42 42 S 10 17 29.88 1012 10 16 0.00 0.00
11:53 pm 23:53 Clear 81 27.2 51 10.6 35 35 S 14 22 29.88 1012 10 16 0.00 0.00

Powered by AerisWeather